Weather History for Selawik, AK

Change the Weather History Date:

Saturday, September 14, 2013

  Actual Average Record
Temperature  
Mean Temperature 38 °F -  
Max Temperature 42 °F 45 °F 62 °F (2010)
Min Temperature 35 °F 35 °F 24 °F (1996)
Degree Days  
Heating Degree Days 26    
Moisture  
Dew Point 33 °F    
Average Humidity 77    
Maximum Humidity 87    
Minimum Humidity 66    
Precipitation  
Precipitation 0.00 in - - ()
Sea Level Pressure  
Sea Level Pressure 30.11 in    
Wind  
Wind Speed 9 mph (West)    
Max Wind Speed 15 mph    
Max Gust Speed 22 mph    
Visibility 10 miles    
Events      
Averages and records for this station are not official NWS values.
T = Trace of Precipitation, MM = Missing Value Source: NWS Daily Summary

Daily Weather History Graph

Daily Weather History Graph

Search for Another Location

Airport:

Trip Planner

Search our weather history database for the weather conditions in past years. The results will help you decide how hot, cold, wet, or windy it might be!

Date:

Astronomy

Sep. 14, 2013 Rise Set
Actual Time 7:57 AM AKDT 9:11 PM AKDT
Civil Twilight 7:03 AM AKDT 10:05 PM AKDT
Nautical Twilight 5:52 AM AKDT 11:15 PM AKDT
Astronomical Twilight 4:13 AM AKDT 12:49 AM AKDT
Moon 7:37 PM AKDT (9/14) 12:45 AM AKDT (9/14)
Length of Visible Light 15h 02m
Length of Day
13h 13m
Waxing Gibbous, 74% of the Moon is Illuminated
Sep 14
Waxing Gibbous
Sep 19
Full
Sep 26
Last Quarter
Oct 4
New
Oct 11
First Quarter

Hourly Weather History & Observations

Time (AKDT) Temp. Windchill Dew Point Humidity Pressure Visibility Wind Dir Wind Speed Gust Speed Precip Events Conditions
12:16 AM 41.0 °F 36.4 °F 37.4 °F 87% 29.99 in 8.0 mi West 6.9 mph - N/A   Overcast
12:36 AM 42.8 °F 38.0 °F 37.4 °F 81% 30.00 in 10.0 mi West 8.1 mph - N/A   Overcast
12:56 AM 42.8 °F 38.0 °F 37.4 °F 81% 30.00 in 4.0 mi West 8.1 mph - N/A   Overcast
1:16 AM 41.0 °F 36.4 °F 37.4 °F 87% 30.01 in 10.0 mi West 6.9 mph - N/A   Overcast
1:36 AM 41.0 °F 34.7 °F 37.4 °F 87% 30.01 in 10.0 mi WNW 10.4 mph - N/A   Overcast
1:56 AM 41.0 °F 36.4 °F 35.6 °F 81% 30.01 in 10.0 mi West 6.9 mph - N/A   Mostly Cloudy
2:16 AM 41.0 °F 37.1 °F 35.6 °F 81% 30.02 in 10.0 mi West 5.8 mph - N/A   Overcast
2:36 AM 41.0 °F 37.1 °F 35.6 °F 81% 30.02 in 10.0 mi West 5.8 mph - N/A   Overcast
2:56 AM 41.0 °F 37.1 °F 35.6 °F 81% 30.03 in 10.0 mi West 5.8 mph - N/A   Overcast
3:16 AM 39.2 °F 34.2 °F 35.6 °F 87% 30.03 in 10.0 mi West 6.9 mph - N/A   Overcast
3:36 AM 39.2 °F 33.0 °F 35.6 °F 87% 30.04 in 10.0 mi West 9.2 mph - N/A   Overcast
3:56 AM 39.2 °F 34.2 °F 35.6 °F 87% 30.04 in 10.0 mi West 6.9 mph - N/A   Overcast
4:16 AM 41.0 °F 34.7 °F 35.6 °F 81% 30.04 in 10.0 mi WNW 10.4 mph - N/A   Overcast
4:36 AM 41.0 °F 36.4 °F 35.6 °F 81% 30.04 in 10.0 mi WNW 6.9 mph - N/A   Overcast
4:56 AM 42.8 °F 37.0 °F 33.8 °F 70% 30.04 in 10.0 mi WNW 10.4 mph - N/A   Overcast
5:16 AM 41.0 °F 34.3 °F 33.8 °F 76% 30.05 in 10.0 mi WNW 11.5 mph 16.1 mph N/A   Overcast
5:36 AM 41.0 °F 34.7 °F 33.8 °F 76% 30.05 in 10.0 mi WNW 10.4 mph - N/A   Overcast
5:56 AM 41.0 °F 34.7 °F 33.8 °F 76% 30.06 in 10.0 mi West 10.4 mph - N/A   Overcast
6:16 AM 39.2 °F 32.5 °F 33.8 °F 81% 30.06 in 10.0 mi West 10.4 mph - N/A   Overcast
6:36 AM 39.2 °F 33.6 °F 32.0 °F 75% 30.07 in 10.0 mi West 8.1 mph - N/A   Mostly Cloudy
6:56 AM 37.4 °F 31.4 °F 30.2 °F 75% 30.07 in 10.0 mi WNW 8.1 mph - N/A   Partly Cloudy
7:16 AM 37.4 °F 32.1 °F 30.2 °F 75% 30.07 in 10.0 mi West 6.9 mph - N/A   Clear
7:36 AM 37.4 °F 31.4 °F 30.2 °F 75% 30.07 in 10.0 mi WNW 8.1 mph - N/A   Clear
7:56 AM 35.6 °F 28.6 °F 30.2 °F 81% 30.08 in 10.0 mi West 9.2 mph - N/A   Clear
8:16 AM 35.6 °F 30.7 °F 30.2 °F 81% 30.08 in 10.0 mi West 5.8 mph - N/A   Clear
8:36 AM 35.6 °F 29.9 °F 30.2 °F 81% 30.08 in 10.0 mi West 6.9 mph - N/A   Clear
8:56 AM 37.4 °F 32.1 °F 30.2 °F 75% 30.09 in 10.0 mi West 6.9 mph - N/A   Clear
9:16 AM 37.4 °F 32.1 °F 32.0 °F 81% 30.09 in 10.0 mi West 6.9 mph - N/A   Clear
9:36 AM 37.4 °F 30.3 °F 32.0 °F 81% 30.10 in 10.0 mi West 10.4 mph - N/A   Clear
9:56 AM 39.2 °F 32.0 °F 32.0 °F 75% 30.10 in 10.0 mi West 11.5 mph - N/A   Clear
10:16 AM 39.2 °F 30.8 °F 32.0 °F 75% 30.10 in 10.0 mi WNW 15.0 mph - N/A   Clear
10:36 AM 39.2 °F 32.0 °F 32.0 °F 75% 30.10 in 10.0 mi WNW 11.5 mph 17.3 mph N/A   Clear
10:56 AM 39.2 °F 31.2 °F 32.0 °F 75% 30.11 in 10.0 mi West 13.8 mph - N/A   Clear
11:16 AM 39.2 °F 30.8 °F 30.2 °F 70% 30.11 in 10.0 mi West 15.0 mph 21.9 mph N/A   Mostly Cloudy
11:36 AM 39.2 °F 30.8 °F 30.2 °F 70% 30.12 in 10.0 mi WNW 15.0 mph 20.7 mph N/A   Overcast
11:56 AM 39.2 °F 31.6 °F 32.0 °F 75% 30.12 in 10.0 mi WNW 12.7 mph - N/A   Overcast
12:16 PM 39.2 °F 31.6 °F 32.0 °F 75% 30.13 in 10.0 mi WNW 12.7 mph - N/A   Overcast
12:36 PM 39.2 °F 30.8 °F 32.0 °F 75% 30.13 in 10.0 mi WNW 15.0 mph 20.7 mph N/A   Overcast
12:56 PM 41.0 °F 33.9 °F 32.0 °F 70% 30.13 in 10.0 mi WNW 12.7 mph 20.7 mph N/A   Overcast
1:16 PM 41.0 °F 33.5 °F 33.8 °F 76% 30.13 in 10.0 mi WNW 13.8 mph - N/A   Overcast
1:36 PM 41.0 °F 33.5 °F 33.8 °F 76% 30.13 in 10.0 mi West 13.8 mph 19.6 mph N/A   Overcast
1:56 PM 41.0 °F 34.3 °F 33.8 °F 76% 30.14 in 10.0 mi WNW 11.5 mph 18.4 mph N/A   Overcast
2:16 PM 41.0 °F 33.9 °F 33.8 °F 76% 30.14 in 10.0 mi West 12.7 mph 17.3 mph N/A   Overcast
2:36 PM 42.8 °F 37.0 °F 33.8 °F 70% 30.14 in 10.0 mi WNW 10.4 mph - N/A   Overcast
2:56 PM 42.8 °F 36.6 °F 33.8 °F 70% 30.14 in 10.0 mi West 11.5 mph 17.3 mph N/A   Overcast
3:16 PM 42.8 °F 36.6 °F 33.8 °F 70% 30.15 in 10.0 mi West 11.5 mph - N/A   Overcast
3:36 PM 42.8 °F 37.0 °F 33.8 °F 70% 30.15 in 10.0 mi West 10.4 mph 17.3 mph N/A   Overcast
3:56 PM 42.8 °F 36.6 °F 33.8 °F 70% 30.15 in 10.0 mi WNW 11.5 mph 16.1 mph N/A   Overcast
4:16 PM 42.8 °F 37.0 °F 33.8 °F 70% 30.15 in 10.0 mi West 10.4 mph - N/A   Overcast
4:36 PM 42.8 °F 37.0 °F 33.8 °F 70% 30.15 in 10.0 mi West 10.4 mph - N/A   Overcast
4:56 PM 42.8 °F 36.2 °F 32.0 °F 66% 30.15 in 10.0 mi WNW 12.7 mph 17.3 mph N/A   Overcast
5:16 PM 42.8 °F 37.5 °F 33.8 °F 70% 30.15 in 10.0 mi West 9.2 mph - N/A   Overcast
5:36 PM 42.8 °F 38.0 °F 32.0 °F 66% 30.15 in 10.0 mi West 8.1 mph - N/A   Overcast
5:56 PM 42.8 °F 37.0 °F 32.0 °F 66% 30.15 in 10.0 mi West 10.4 mph - N/A   Overcast
6:16 PM 42.8 °F 37.0 °F 33.8 °F 70% 30.15 in 10.0 mi West 10.4 mph 17.3 mph N/A   Overcast
6:36 PM 41.0 °F 34.7 °F 32.0 °F 70% 30.15 in 10.0 mi West 10.4 mph 16.1 mph N/A   Overcast
6:56 PM 42.8 °F 37.5 °F 32.0 °F 66% 30.16 in 10.0 mi WNW 9.2 mph - N/A   Overcast
7:16 PM 41.0 °F 34.7 °F 32.0 °F 70% 30.15 in 10.0 mi WNW 10.4 mph - N/A   Overcast
7:36 PM 41.0 °F 35.8 °F 32.0 °F 70% 30.15 in 10.0 mi West 8.1 mph - N/A   Mostly Cloudy
7:56 PM 39.2 °F 33.0 °F 32.0 °F 75% 30.16 in 10.0 mi West 9.2 mph - N/A   Overcast
8:16 PM 39.2 °F 33.6 °F 32.0 °F 75% 30.16 in 10.0 mi West 8.1 mph - N/A   Mostly Cloudy
8:36 PM 39.2 °F 33.0 °F 32.0 °F 75% 30.17 in 10.0 mi West 9.2 mph - N/A   Scattered Clouds
8:56 PM 39.2 °F 34.2 °F 32.0 °F 75% 30.17 in 10.0 mi West 6.9 mph - N/A   Scattered Clouds
9:16 PM 37.4 °F 32.8 °F 32.0 °F 81% 30.17 in 10.0 mi West 5.8 mph - N/A   Clear
9:36 PM 37.4 °F 33.8 °F 32.0 °F 81% 30.18 in 10.0 mi WSW 4.6 mph - N/A   Clear
9:56 PM 35.6 °F 30.7 °F 30.2 °F 81% 30.18 in 10.0 mi West 5.8 mph - N/A   Partly Cloudy
10:16 PM 35.6 °F 32.8 °F 32.0 °F 87% 30.18 in 10.0 mi West 3.5 mph - N/A   Clear
10:36 PM 35.6 °F 29.2 °F 32.0 °F 87% 30.18 in 10.0 mi West 8.1 mph - N/A   Clear
10:56 PM 35.6 °F 30.7 °F 30.2 °F 81% 30.19 in 10.0 mi West 5.8 mph - N/A   Clear
11:16 PM 35.6 °F 29.2 °F 32.0 °F 87% 30.19 in 10.0 mi West 8.1 mph - N/A   Clear
11:36 PM 35.6 °F 30.7 °F 30.2 °F 81% 30.19 in 10.0 mi West 5.8 mph - N/A   Clear
11:56 PM 35.6 °F 31.7 °F 30.2 °F 81% 30.19 in 10.0 mi West 4.6 mph - N/A   Clear